Terminal Aerodrome Forecast
Issued by NWS

Home | Current Version | Previous Version | Text Only | Print | Product List | Glossary Off
Versions: 1 2 3 4 5 6 7 8 9 10 11 12 13 14 15 16 17 18 19 20 21 22 23

000
FTUS43 KBIS 301100
TAFJMS
TAF
KJMS 301120Z 3012/3112 18011KT P6SM OVC009
     FM301400 19011KT P6SM SCT150
     FM302000 32011KT P6SM SCT100=

USA.gov is the U.S. government's official web portal to all federal, state and local government web resources and services.